User: anonymous   Login
Location: Unspecified
(0.0000°N, 0.0000°E)
Time: 22:16:38
(UTC+00:00)
Language:

STARLINK-35834 - Orbit

View from above orbital plane
View from above orbital plane
View from above satellite
View from above satellite

Ground track
Ground track

The orbit is defined by the following mean orbital elements,

1 66570U          26145.64291050 +.00000000 +00000-0 +46535-3 0 00008
2 66570  43.0008 272.9187 0001062 267.4267  92.6463 15.27591134    08
Epoch (UTC): 25 May 2026 15:25:47
Eccentricity: 0.0001062
inclination: 43.0008°
perigee height: 482 km
apogee height: 484 km
right ascension of ascending node: 272.9187°
argument of perigee: 267.4267°
revolutions per day: 15.27591134
mean anomaly at epoch: 92.6463°

The dashed part of the orbit path shows where the satellite is in the earth's shadow,  

DLR